Location: Veytaux
(46.4185°N, 6.9320°E)
Time: 07:49:04
(UTC+00:00)

MOS 1 Rocket - Pass Details

Date: 27 May 2022
Orbit: 615 x 827 km, 97.5° (Epoch: 01 July)

Event Time Altitude Azimuth Distance (km) Brightness Sun altitude
Exits shadow 01:33:20 20° 163° (SSE) 1,428 4.5 -16.7°
Maximum altitude 01:36:15 84° 77° (ENE) 626 3.0 -16.5°
Drops below altitude 10° 01:40:36 10° 349° (NNW) 2,007 6.4 -16.1°
Sets 01:42:49 0° 349° (NNW) 2,935 7.3 -15.9°
